{"data":{"norad_id":68439,"intl_designator":"2026-067Z","name":"TRANSPORTER-16 OBJECT Z","alt_names":[],"object_type":"PAYLOAD","status":"ACTIVE","operator":null,"country":"TBD","launch_date":"2026-03-30","launch_site_code":"AFWTR","launch_vehicle":null,"mission":null,"orbit_class":"UNKNOWN","rcs_meters":null,"size_class":null,"mass_kg":null,"dimensions":null,"purposes":[],"wikipedia_slug":null,"has_3d_model":false,"image_url":null,"decayed_at":null,"tle_current":{"epoch":"2026-05-25T03:09:58.715712Z","epoch_age_seconds":74040,"freshness":"FRESH","line1":"1 68439U 26067Z   26145.13192958  .00011864  00000+0  57305-3 0  9999","line2":"2 68439  97.4502 103.9290 0004717 116.6181 243.5537 15.18790835  8448","mean_motion":15.18790835,"eccentricity":0.0004717,"inclination_deg":97.4502,"raan_deg":103.929,"arg_perigee_deg":116.6181,"mean_anomaly_deg":243.5537,"bstar":0.00057305,"rev_number":844,"period_min":94.81226557441,"perigee_km":506.24495806996,"apogee_km":512.74274901719,"semimajor_km":6887.6308535436,"source":"CELESTRAK","updated_at":"2026-05-25T13:38:07.837028Z"}}}